Overview Statistics Trail Chart Weather Telemetry Raw packets
 

This is the latest recevied weather packets stored in our database for station/object PY2WOA-13. If no packets are shown the sender has not sent any weather packets the latest 10 day(s).

<< 1 2 3 4 >>
Time Temp. Humidity Pressure Rain* Wind** Luminosity Snow
1788676504 16.67° C 93% 1015 hPa - - - -
1788674704 16.67° C 95% 1015 hPa - - - -
1788672904 17.22° C 100% 1015.1 hPa - - - -
1788671104 17.78° C 98% 1014.9 hPa - - - -
1788669340 18.33° C 91% 1014.7 hPa - - - -
1788667504 18.89° C 95% 1014.8 hPa - - - -
1788665704 20° C 92% 1014.7 hPa - - - -
1788663903 21.67° C 100% 1013.8 hPa - - - -
1788662103 21.67° C 100% 1013.6 hPa - - - -
1788660304 21.67° C 100% 1012.7 hPa - - - -
1788658504 21.67° C 100% 1012.6 hPa - - - -
1788656704 21.67° C 100% 1012.8 hPa - - - -
1788654904 21.67° C 100% 1012.2 hPa - - - -
1788653104 21.67° C 100% 1012 hPa - - - -
1788651304 21.67° C 100% 1011.9 hPa - - - -
1788649503 21.11° C 100% 1011.7 hPa - - - -
1788647704 21.67° C 100% 1011.2 hPa - - - -
1788645904 21.67° C 100% 1010.9 hPa - - - -
1788644104 21.67° C 100% 1010.7 hPa - - - -
1788642304 21.67° C 100% 1010.2 hPa - - - -
1788640504 22.22° C 100% 1010.4 hPa - - - -
1788638704 22.22° C 100% 1010.6 hPa - - - -
1788636903 22.22° C 100% 1010.4 hPa - - - -
1788635104 23.33° C 94% 1010.2 hPa - - - -
1788633304 22.78° C 96% 1009.9 hPa - - - -

* Rain since midnight (hover to see other rain measurements)
** Current wind speed in m/s (hover to see current wind gust speed)